EN

Hourly Weather Barra da Estiva

Today, 22 January, Friday

Time Temperature Precipitation Wind Pressure Humidity
00:00 +18°C° 0 mm 1 mps 675 mmHg 89%
01:00 +16°C° 0 mm 1 mps 675 mmHg 90%
02:00 +16°C° 0 mm 1 mps 675 mmHg 91%
03:00 +15°C° 0 mm 0 mps 675 mmHg 92%
04:00 +15°C° 0 mm 0 mps 675 mmHg 91%
05:00 +15°C° 0 mm 0 mps 675 mmHg 91%
06:00 +15°C° 0 mm 0 mps 675 mmHg 91%
07:00 +19°C° 0 mm 1 mps 676 mmHg 82%
08:00 +20°C° 0 mm 2 mps 677 mmHg 73%
09:00 +23°C° 0 mm 2 mps 678 mmHg 64%
10:00 +24°C° 0 mm 2 mps 678 mmHg 60%
11:00 +26°C° 0 mm 3 mps 677 mmHg 57%
12:00 +27°C° 0 mm 3 mps 677 mmHg 53%
13:00 +27°C° 0 mm 3 mps 677 mmHg 52%
14:00 +28°C° 0 mm 3 mps 676 mmHg 51%
15:00 +28°C° 0 mm 4 mps 676 mmHg 50%
16:00 +27°C° 0 mm 4 mps 676 mmHg 57%
17:00 +25°C° 0 mm 3 mps 675 mmHg 64%
18:00 +22°C° 0 mm 3 mps 675 mmHg 71%
19:00 +21°C° 0.1 mm 3 mps 675 mmHg 76%
20:00 +20°C° 0.1 mm 3 mps 676 mmHg 81%
21:00 +19°C° 0.1 mm 2 mps 676 mmHg 86%
22:00 +18°C° 0 mm 2 mps 676 mmHg 88%
23:00 +18°C° 0 mm 2 mps 676 mmHg 90%

Tomorrow, 23 January, Saturday

Time Temperature Precipitation Wind Pressure Humidity
00:00 +18°C° 0 mm 2 mps 676 mmHg 91%
01:00 +18°C° 0 mm 1 mps 675 mmHg 92%
02:00 +18°C° 0 mm 1 mps 675 mmHg 93%
03:00 +18°C° 0 mm 1 mps 675 mmHg 94%
04:00 +18°C° 0 mm 1 mps 675 mmHg 94%
05:00 +18°C° 0 mm 1 mps 675 mmHg 94%
06:00 +18°C° 0 mm 1 mps 675 mmHg 94%
07:00 +20°C° 0 mm 1 mps 676 mmHg 83%
08:00 +20°C° 0 mm 2 mps 677 mmHg 71%
09:00 +23°C° 0 mm 2 mps 677 mmHg 59%
10:00 +25°C° 0 mm 3 mps 677 mmHg 55%
11:00 +26°C° 0 mm 3 mps 677 mmHg 50%
12:00 +27°C° 0 mm 3 mps 677 mmHg 45%
13:00 +28°C° 0 mm 4 mps 676 mmHg 46%
14:00 +28°C° 0 mm 4 mps 676 mmHg 46%
15:00 +28°C° 0 mm 4 mps 675 mmHg 46%
16:00 +26°C° 0.3 mm 4 mps 675 mmHg 57%
17:00 +23°C° 0.3 mm 4 mps 675 mmHg 68%
18:00 +21°C° 0.3 mm 4 mps 674 mmHg 78%
19:00 +20°C° 0 mm 3 mps 675 mmHg 81%
20:00 +20°C° 0 mm 3 mps 675 mmHg 84%
21:00 +19°C° 0 mm 2 mps 675 mmHg 87%
22:00 +18°C° 0 mm 2 mps 675 mmHg 88%
23:00 +19°C° 0 mm 1 mps 675 mmHg 89%

Day after tomorrow, 24 January, Sunday

Time Temperature Precipitation Wind Pressure Humidity
00:00 +18°C° 0 mm 1 mps 675 mmHg 89%
01:00 +18°C° 0 mm 1 mps 674 mmHg 91%
02:00 +18°C° 0 mm 1 mps 674 mmHg 92%
03:00 +18°C° 0 mm 1 mps 674 mmHg 93%
04:00 +18°C° 0 mm 1 mps 674 mmHg 93%
05:00 +19°C° 0 mm 1 mps 674 mmHg 93%
06:00 +19°C° 0 mm 1 mps 674 mmHg 93%
07:00 +20°C° 0 mm 1 mps 675 mmHg 87%
08:00 +20°C° 0 mm 2 mps 676 mmHg 81%
09:00 +21°C° 0 mm 2 mps 676 mmHg 74%
10:00 +23°C° 0 mm 2 mps 676 mmHg 73%
11:00 +24°C° 0 mm 2 mps 676 mmHg 71%
12:00 +24°C° 0 mm 2 mps 675 mmHg 69%
13:00 +25°C° 0 mm 2 mps 675 mmHg 65%
14:00 +26°C° 0 mm 2 mps 675 mmHg 62%
15:00 +26°C° 0 mm 2 mps 674 mmHg 58%
16:00 +25°C° 0.1 mm 3 mps 674 mmHg 64%
17:00 +24°C° 0.1 mm 3 mps 674 mmHg 71%
18:00 +22°C° 0.1 mm 3 mps 674 mmHg 77%
19:00 +21°C° 0.1 mm 3 mps 674 mmHg 83%
20:00 +20°C° 0.1 mm 2 mps 674 mmHg 89%
21:00 +19°C° 0.1 mm 2 mps 674 mmHg 95%
22:00 +18°C° 0 mm 2 mps 674 mmHg 95%
23:00 +19°C° 0 mm 1 mps 674 mmHg 95%

25 January, Monday

Time Temperature Precipitation Wind Pressure Humidity
00:00 +19°C° 0 mm 1 mps 674 mmHg 95%
01:00 +19°C° 0 mm 1 mps 673 mmHg 95%
02:00 +18°C° 0 mm 1 mps 673 mmHg 95%
03:00 +18°C° 0 mm 1 mps 673 mmHg 95%
04:00 +18°C° 0 mm 1 mps 673 mmHg 95%
05:00 +18°C° 0 mm 1 mps 673 mmHg 95%
06:00 +18°C° 0 mm 1 mps 674 mmHg 94%
07:00 +19°C° 0 mm 1 mps 674 mmHg 88%
08:00 +21°C° 0 mm 1 mps 675 mmHg 82%
09:00 +22°C° 0 mm 1 mps 675 mmHg 76%
10:00 +23°C° 0 mm 2 mps 675 mmHg 72%
11:00 +24°C° 0 mm 2 mps 675 mmHg 69%
12:00 +25°C° 0 mm 2 mps 675 mmHg 65%
13:00 +26°C° 0 mm 3 mps 675 mmHg 62%
14:00 +26°C° 0 mm 3 mps 674 mmHg 59%
15:00 +27°C° 0 mm 3 mps 674 mmHg 56%
16:00 +26°C° 0 mm 2 mps 674 mmHg 61%
17:00 +25°C° 0 mm 2 mps 674 mmHg 66%
18:00 +24°C° 0 mm 1 mps 673 mmHg 71%
19:00 +23°C° 0 mm 2 mps 674 mmHg 75%
20:00 +21°C° 0 mm 2 mps 674 mmHg 79%
21:00 +20°C° 0 mm 2 mps 674 mmHg 82%
22:00 +19°C° 0 mm 2 mps 674 mmHg 86%
23:00 +19°C° 0 mm 1 mps 674 mmHg 89%

26 January, Tuesday

Time Temperature Precipitation Wind Pressure Humidity
00:00 +18°C° 0 mm 1 mps 674 mmHg 92%
01:00 +18°C° 0 mm 1 mps 673 mmHg 93%
02:00 +18°C° 0 mm 1 mps 673 mmHg 94%
03:00 +16°C° 0 mm 1 mps 673 mmHg 96%
04:00 +16°C° 0 mm 1 mps 673 mmHg 96%
05:00 +16°C° 0 mm 1 mps 673 mmHg 96%
06:00 +16°C° 0 mm 1 mps 674 mmHg 97%
07:00 +19°C° 0 mm 1 mps 674 mmHg 86%
08:00 +20°C° 0 mm 2 mps 675 mmHg 76%
09:00 +23°C° 0 mm 2 mps 676 mmHg 66%
10:00 +25°C° 0 mm 2 mps 676 mmHg 59%
11:00 +26°C° 0 mm 3 mps 676 mmHg 52%
12:00 +28°C° 0 mm 3 mps 676 mmHg 46%
13:00 +28°C° 0 mm 3 mps 675 mmHg 43%
14:00 +29°C° 0 mm 3 mps 675 mmHg 41%
15:00 +29°C° 0 mm 3 mps 674 mmHg 39%
16:00 +28°C° 0 mm 3 mps 674 mmHg 47%
17:00 +26°C° 0 mm 3 mps 674 mmHg 54%
18:00 +25°C° 0 mm 4 mps 674 mmHg 61%
19:00 +22°C° 0 mm 3 mps 674 mmHg 70%
20:00 +21°C° 0 mm 3 mps 674 mmHg 78%
21:00 +19°C° 0 mm 2 mps 674 mmHg 87%
22:00 +18°C° 0 mm 2 mps 674 mmHg 88%
23:00 +19°C° 0 mm 1 mps 674 mmHg 89%

27 January, Wednesday

Time Temperature Precipitation Wind Pressure Humidity
00:00 +19°C° 0 mm 1 mps 674 mmHg 90%
01:00 +18°C° 0 mm 1 mps 674 mmHg 91%
02:00 +18°C° 0 mm 1 mps 673 mmHg 92%
03:00 +16°C° 0 mm 1 mps 673 mmHg 92%
04:00 +16°C° 0 mm 1 mps 673 mmHg 92%
05:00 +15°C° 0 mm 0 mps 674 mmHg 91%
06:00 +16°C° 0 mm 0 mps 674 mmHg 90%
07:00 +19°C° 0 mm 1 mps 675 mmHg 85%
08:00 +21°C° 0 mm 1 mps 675 mmHg 80%
09:00 +21°C° 0 mm 2 mps 676 mmHg 75%
10:00 +24°C° 0 mm 2 mps 676 mmHg 67%
11:00 +26°C° 0 mm 3 mps 676 mmHg 60%
12:00 +28°C° 0 mm 3 mps 676 mmHg 53%
13:00 +28°C° 0.1 mm 3 mps 675 mmHg 53%
14:00 +28°C° 0.1 mm 4 mps 674 mmHg 54%
15:00 +28°C° 0.1 mm 4 mps 674 mmHg 55%
16:00 +27°C° 0.2 mm 3 mps 673 mmHg 62%
17:00 +25°C° 0.2 mm 3 mps 673 mmHg 69%
18:00 +24°C° 0.2 mm 3 mps 673 mmHg 76%
19:00 +21°C° 0.1 mm 3 mps 673 mmHg 81%
20:00 +20°C° 0.1 mm 2 mps 673 mmHg 86%
21:00 +19°C° 0.1 mm 2 mps 674 mmHg 90%
22:00 +19°C° 0 mm 2 mps 674 mmHg 92%
23:00 +19°C° 0 mm 1 mps 673 mmHg 93%
Show more

We Need Your Consent

Meteoprog and our Service Providers may store and access personal data such as cookies, device identifiers or other similar technologies on your device and process such data to personalise content and ads, as well as provide social media features and to analyse the traffic.

  • Store and/or access information on your device

    Cookies, device identifiers or other information can be stored or accessed on your device for the purposes indicated above.

  • Personalised ads and content, ad and content measurement, audience insights, and products development

    Ads and content can be personalised based on a profile. More data can be added to better personalise ads and content. Ad and content performance can be measured. Insights about the audience who saw the ads and content can be derived. Such data can be used to develop or improve user’s experience, systems and software.

By clicking ‘I Agree’ you will allow the use of indicated cookies, device identifiers, web beacons or other similar technologies. Your settings can be changed in the browser on your device.

For certain purposes, legitimate interests may be relied on, rather than consent. You can read more about this in our Privacy and Cookie Policy.